This is the latest recevied weather packets stored in our database for station/object K1AWR. If no packets are shown the sender has not sent any weather packets the latest 10 day(s).
| Time | Temp. | Humidity | Pressure | Rain* | Wind** | Luminosity | Snow |
|---|---|---|---|---|---|---|---|
| 1777388981 | 18.89° C | 41% | 1021.5 hPa | 0 mm | - | 203 W/m² | - |
| 1777388678 | 19.44° C | 44% | 1021.8 hPa | 0 mm | - | 463 W/m² | - |
| 1777388374 | 19.44° C | 42% | 1021.8 hPa | 0 mm | - | 402 W/m² | - |
| 1777388073 | 18.89° C | 43% | 1021.9 hPa | 0 mm | - | 572 W/m² | - |
| 1777387770 | 19.44° C | 40% | 1021.9 hPa | 0 mm | - | 353 W/m² | - |
| 1777387467 | 19.44° C | 41% | 1021.8 hPa | 0 mm | - | 433 W/m² | - |
| 1777387161 | 19.44° C | 41% | 1022.1 hPa | 0 mm | - | 500 W/m² | - |
| 1777386857 | 18.33° C | 44% | 1022.1 hPa | 0 mm | - | 555 W/m² | - |
| 1777386554 | 17.78° C | 45% | 1022 hPa | 0 mm | - | 583 W/m² | - |
| 1777386251 | 17.78° C | 47% | 1022.2 hPa | 0 mm | - | 239 W/m² | - |
| 1777385949 | 18.89° C | 47% | 1022.2 hPa | 0 mm | - | 563 W/m² | - |
| 1777385645 | 17.78° C | 46% | 1022.5 hPa | 0 mm | - | 452 W/m² | - |
| 1777385343 | 17.22° C | 46% | 1022.7 hPa | 0 mm | - | 443 W/m² | - |
| 1777385038 | 17.22° C | 45% | 1022.6 hPa | 0 mm | - | 114 W/m² | - |
| 1777384736 | 17.22° C | 46% | 1022.5 hPa | 0 mm | - | 546 W/m² | - |
| 1777384435 | 16.67° C | 49% | 1022.5 hPa | 0 mm | - | 379 W/m² | - |
| 1777384131 | 16.67° C | 47% | 1022.2 hPa | 0 mm | - | 523 W/m² | - |
| 1777383828 | 16.67° C | 49% | 1022.2 hPa | 0 mm | - | 499 W/m² | - |
| 1777383524 | 16.11° C | 51% | 1022.3 hPa | 0 mm | - | 356 W/m² | - |
| 1777383221 | 16.11° C | 51% | 1022.3 hPa | 0 mm | - | 405 W/m² | - |
| 1777382917 | 15.56° C | 49% | 1022.5 hPa | 0 mm | - | 460 W/m² | - |
| 1777382613 | 15.56° C | 49% | 1022.5 hPa | 0 mm | - | 438 W/m² | - |
| 1777382310 | 16.67° C | 52% | 1022.6 hPa | 0 mm | - | 425 W/m² | - |
| 1777382006 | 13.33° C | 56% | 1022.7 hPa | 0 mm | - | 412 W/m² | - |
| 1777381706 | 14.44° C | 57% | 1022.8 hPa | 0 mm | - | 400 W/m² | - |
* Rain latest hour (hover to see other rain measurements)
** Current wind speed in m/s (hover to see current wind gust speed)